When you browse on this site, cookies collect data to enhance your experience and personalize the content and advertising you see.
Visit our Privacy Policy to learn more. By continuing to use the site, you agree to this use of cookies and data.

Hourly Weather Buenos Aires

Today, 12 July, Sunday

Time Temperature Precipitation Wind Pressure Humidity
00:00 +10°C° 0 mm 2 mps 758 mmHg 41%
01:00 +10°C° 0 mm 2 mps 758 mmHg 40%
02:00 +10°C° 0 mm 2 mps 757 mmHg 37%
03:00 +10°C° 0 mm 3 mps 757 mmHg 40%
04:00 +10°C° 0 mm 3 mps 757 mmHg 43%
05:00 +10°C° 0 mm 3 mps 757 mmHg 46%
06:00 +8°C° 0 mm 4 mps 758 mmHg 46%
07:00 +8°C° 0 mm 4 mps 758 mmHg 47%
08:00 +7°C° 0 mm 6 mps 759 mmHg 49%
09:00 +8°C° 0 mm 5 mps 759 mmHg 44%
10:00 +9°C° 0 mm 5 mps 759 mmHg 40%
11:00 +10°C° 0 mm 5 mps 759 mmHg 35%
12:00 +12°C° 0 mm 5 mps 759 mmHg 31%
13:00 +13°C° 0 mm 5 mps 759 mmHg 28%
14:00 +14°C° 0 mm 6 mps 759 mmHg 25%
15:00 +13°C° 0 mm 6 mps 759 mmHg 27%
16:00 +11°C° 0 mm 6 mps 759 mmHg 30%
17:00 +10°C° 0 mm 6 mps 759 mmHg 33%
18:00 +10°C° 0 mm 5 mps 760 mmHg 35%
19:00 +11°C° 0 mm 4 mps 760 mmHg 37%
20:00 +10°C° 0 mm 4 mps 761 mmHg 38%
21:00 +10°C° 0 mm 4 mps 761 mmHg 40%
22:00 +10°C° 0 mm 4 mps 761 mmHg 41%
23:00 +8°C° 0 mm 4 mps 761 mmHg 43%

Tomorrow, 13 July, Monday

Time Temperature Precipitation Wind Pressure Humidity
00:00 +8°C° 0 mm 4 mps 761 mmHg 46%
01:00 +8°C° 0 mm 5 mps 761 mmHg 49%
02:00 +7°C° 0 mm 5 mps 762 mmHg 52%
03:00 +7°C° 0 mm 5 mps 762 mmHg 55%
04:00 +7°C° 0 mm 5 mps 762 mmHg 57%
05:00 +6°C° 0 mm 5 mps 762 mmHg 60%
06:00 +6°C° 0 mm 5 mps 763 mmHg 58%
07:00 +6°C° 0 mm 5 mps 763 mmHg 56%
08:00 +6°C° 0 mm 5 mps 764 mmHg 55%
09:00 +7°C° 0 mm 5 mps 764 mmHg 48%
10:00 +8°C° 0 mm 5 mps 764 mmHg 41%
11:00 +9°C° 0 mm 5 mps 765 mmHg 34%
12:00 +9°C° 0 mm 5 mps 764 mmHg 32%
13:00 +10°C° 0 mm 5 mps 764 mmHg 30%
14:00 +10°C° 0 mm 5 mps 764 mmHg 29%
15:00 +10°C° 0 mm 5 mps 764 mmHg 31%
16:00 +9°C° 0 mm 5 mps 765 mmHg 32%
17:00 +8°C° 0 mm 5 mps 765 mmHg 34%
18:00 +8°C° 0 mm 5 mps 765 mmHg 36%
19:00 +7°C° 0 mm 5 mps 766 mmHg 37%
20:00 +7°C° 0 mm 4 mps 766 mmHg 38%
21:00 +6°C° 0 mm 4 mps 766 mmHg 39%
22:00 +6°C° 0 mm 4 mps 766 mmHg 41%
23:00 +6°C° 0 mm 4 mps 767 mmHg 42%

Day after tomorrow, 14 July, Tuesday

Time Temperature Precipitation Wind Pressure Humidity
00:00 +5°C° 0 mm 4 mps 767 mmHg 43%
01:00 +5°C° 0 mm 4 mps 767 mmHg 44%
02:00 +5°C° 0 mm 4 mps 767 mmHg 45%
03:00 +4°C° 0 mm 4 mps 767 mmHg 44%
04:00 +4°C° 0 mm 4 mps 767 mmHg 44%
05:00 +4°C° 0 mm 4 mps 767 mmHg 43%
06:00 +4°C° 0 mm 4 mps 767 mmHg 43%
07:00 +4°C° 0 mm 4 mps 768 mmHg 43%
08:00 +4°C° 0 mm 3 mps 768 mmHg 42%
09:00 +5°C° 0 mm 3 mps 768 mmHg 39%
10:00 +8°C° 0 mm 3 mps 768 mmHg 35%
11:00 +9°C° 0 mm 3 mps 768 mmHg 32%
12:00 +10°C° 0 mm 2 mps 768 mmHg 31%
13:00 +12°C° 0 mm 2 mps 768 mmHg 30%
14:00 +12°C° 0 mm 2 mps 767 mmHg 29%
15:00 +12°C° 0 mm 1 mps 767 mmHg 32%
16:00 +11°C° 0 mm 1 mps 767 mmHg 34%
17:00 +10°C° 0 mm 1 mps 766 mmHg 37%
18:00 +10°C° 0 mm 1 mps 767 mmHg 38%
19:00 +9°C° 0 mm 1 mps 767 mmHg 38%
20:00 +8°C° 0 mm 0 mps 767 mmHg 39%
21:00 +9°C° 0 mm 1 mps 767 mmHg 40%
22:00 +9°C° 0 mm 1 mps 767 mmHg 40%
23:00 +7°C° 0 mm 2 mps 767 mmHg 41%

15 July, Wednesday

Time Temperature Precipitation Wind Pressure Humidity
00:00 +7°C° 0 mm 2 mps 767 mmHg 43%
01:00 +7°C° 0 mm 2 mps 767 mmHg 45%
02:00 +5°C° 0 mm 3 mps 767 mmHg 47%
03:00 +5°C° 0 mm 3 mps 766 mmHg 48%
04:00 +5°C° 0 mm 3 mps 766 mmHg 49%
05:00 +5°C° 0 mm 3 mps 766 mmHg 50%
06:00 +5°C° 0 mm 3 mps 766 mmHg 51%
07:00 +5°C° 0 mm 4 mps 767 mmHg 52%
08:00 +5°C° 0 mm 4 mps 767 mmHg 53%
09:00 +6°C° 0 mm 4 mps 767 mmHg 48%
10:00 +9°C° 0 mm 3 mps 767 mmHg 42%
11:00 +10°C° 0 mm 3 mps 766 mmHg 37%
12:00 +11°C° 0 mm 3 mps 766 mmHg 35%
13:00 +12°C° 0 mm 3 mps 765 mmHg 34%
14:00 +13°C° 0 mm 4 mps 764 mmHg 32%
15:00 +12°C° 0 mm 3 mps 764 mmHg 35%
16:00 +11°C° 0 mm 3 mps 764 mmHg 39%
17:00 +11°C° 0 mm 3 mps 764 mmHg 42%
18:00 +10°C° 0 mm 3 mps 764 mmHg 46%
19:00 +10°C° 0 mm 3 mps 764 mmHg 49%
20:00 +8°C° 0 mm 4 mps 764 mmHg 53%
21:00 +8°C° 0 mm 4 mps 764 mmHg 56%
22:00 +8°C° 0 mm 4 mps 765 mmHg 58%
23:00 +7°C° 0 mm 4 mps 765 mmHg 61%

16 July, Thursday

Time Temperature Precipitation Wind Pressure Humidity
00:00 +7°C° 0 mm 4 mps 765 mmHg 63%
01:00 +7°C° 0 mm 4 mps 764 mmHg 65%
02:00 +7°C° 0 mm 3 mps 764 mmHg 66%
03:00 +7°C° 0 mm 3 mps 764 mmHg 67%
04:00 +7°C° 0 mm 2 mps 764 mmHg 69%
05:00 +7°C° 0 mm 1 mps 764 mmHg 70%
06:00 +7°C° 0 mm 1 mps 764 mmHg 69%
07:00 +8°C° 0 mm 1 mps 764 mmHg 68%
08:00 +8°C° 0 mm 1 mps 765 mmHg 68%
09:00 +9°C° 0 mm 1 mps 765 mmHg 61%
10:00 +10°C° 0 mm 2 mps 765 mmHg 54%
11:00 +13°C° 0 mm 2 mps 764 mmHg 48%
12:00 +13°C° 0 mm 2 mps 764 mmHg 46%
13:00 +14°C° 0 mm 2 mps 763 mmHg 44%
14:00 +13°C° 0 mm 3 mps 763 mmHg 43%
15:00 +12°C° 0 mm 3 mps 763 mmHg 46%
16:00 +12°C° 0 mm 3 mps 763 mmHg 50%
17:00 +11°C° 0 mm 3 mps 763 mmHg 53%
18:00 +11°C° 0 mm 4 mps 763 mmHg 58%
19:00 +10°C° 0 mm 4 mps 763 mmHg 63%
20:00 +9°C° 0 mm 5 mps 763 mmHg 67%
21:00 +9°C° 0 mm 5 mps 763 mmHg 69%
22:00 +9°C° 0 mm 5 mps 762 mmHg 70%
23:00 +10°C° 0 mm 4 mps 762 mmHg 72%

17 July, Friday

Time Temperature Precipitation Wind Pressure Humidity
00:00 +10°C° 0 mm 4 mps 762 mmHg 76%
01:00 +10°C° 0 mm 4 mps 762 mmHg 81%
02:00 +8°C° 0 mm 4 mps 762 mmHg 85%
03:00 +8°C° 0 mm 4 mps 761 mmHg 88%
04:00 +8°C° 0 mm 4 mps 761 mmHg 91%
05:00 +8°C° 0 mm 4 mps 761 mmHg 94%
06:00 +8°C° 0 mm 4 mps 761 mmHg 93%
07:00 +8°C° 0 mm 4 mps 760 mmHg 92%
08:00 +10°C° 0 mm 4 mps 760 mmHg 91%
09:00 +11°C° 0 mm 4 mps 760 mmHg 87%
10:00 +12°C° 0 mm 3 mps 760 mmHg 83%
11:00 +13°C° 0 mm 3 mps 760 mmHg 79%
12:00 +13°C° 0 mm 3 mps 759 mmHg 77%
13:00 +14°C° 0 mm 3 mps 758 mmHg 76%
14:00 +14°C° 0 mm 4 mps 758 mmHg 75%
15:00 +14°C° 0.2 mm 4 mps 757 mmHg 79%
16:00 +14°C° 0.2 mm 3 mps 757 mmHg 84%
17:00 +13°C° 0.2 mm 3 mps 757 mmHg 89%
18:00 +13°C° 0.2 mm 3 mps 757 mmHg 91%
19:00 +13°C° 0.2 mm 3 mps 757 mmHg 93%
20:00 +13°C° 0.2 mm 3 mps 757 mmHg 94%
21:00 +13°C° 0 mm 3 mps 757 mmHg 96%
22:00 +13°C° 0 mm 3 mps 757 mmHg 97%
23:00 +14°C° 0 mm 2 mps 757 mmHg 98%
Show more